• In Deutschland
  • Länderverzeichnis
  • Für 7 Tage
  • Wassertemperatur
  • Satellitenkarten
  • Wetterkarte
  • Widgets
  • user-avatar
    Anmelden

    Stündliche Wetter Akka

    Heute, 20 Oktober, Samstag

    Zeit Temperatur Niederschläge Wind Luftdruck Luftfeuchtigkeit
    00:00 +26°C° 0 mm 1 m/S 759 mmHg 82%
    01:00 +25°C° 0 mm 1 m/S 759 mmHg 83%
    02:00 +25°C° 0 mm 1 m/S 759 mmHg 84%
    03:00 +25°C° 0.3 mm 1 m/S 759 mmHg 84%
    04:00 +25°C° 0.3 mm 1 m/S 759 mmHg 85%
    05:00 +25°C° 0.3 mm 1 m/S 759 mmHg 86%
    06:00 +25°C° 0.7 mm 1 m/S 759 mmHg 82%
    07:00 +26°C° 0.7 mm 1 m/S 759 mmHg 78%
    08:00 +27°C° 0 mm 1 m/S 759 mmHg 74%
    09:00 +28°C° 0.4 mm 1 m/S 759 mmHg 68%
    10:00 +29°C° 0.4 mm 2 m/S 759 mmHg 61%
    11:00 +30°C° 0.4 mm 2 m/S 759 mmHg 55%
    12:00 +30°C° 0.3 mm 3 m/S 759 mmHg 55%
    13:00 +30°C° 0.3 mm 3 m/S 759 mmHg 54%
    14:00 +30°C° 0 mm 3 m/S 758 mmHg 52%
    15:00 +30°C° 0.3 mm 3 m/S 759 mmHg 57%
    16:00 +29°C° 0.3 mm 3 m/S 759 mmHg 61%
    17:00 +28°C° 0.3 mm 3 m/S 759 mmHg 66%
    18:00 +27°C° 0.1 mm 3 m/S 759 mmHg 69%
    19:00 +27°C° 0.1 mm 2 m/S 759 mmHg 71%
    20:00 +26°C° 0.1 mm 2 m/S 758 mmHg 74%
    21:00 +26°C° 0.1 mm 1 m/S 758 mmHg 75%
    22:00 +26°C° 0.1 mm 1 m/S 758 mmHg 76%
    23:00 +25°C° 0.1 mm 1 m/S 758 mmHg 77%

    Morgen, 21 Oktober, Sonntag

    Zeit Temperatur Niederschläge Wind Luftdruck Luftfeuchtigkeit
    00:00 +25°C° 0 mm 1 m/S 758 mmHg 78%
    01:00 +25°C° 0 mm 2 m/S 758 mmHg 79%
    02:00 +24°C° 0 mm 2 m/S 758 mmHg 80%
    03:00 +24°C° 0.1 mm 2 m/S 758 mmHg 81%
    04:00 +24°C° 0.1 mm 2 m/S 758 mmHg 81%
    05:00 +24°C° 0.1 mm 2 m/S 758 mmHg 81%
    06:00 +25°C° 0.1 mm 2 m/S 758 mmHg 77%
    07:00 +25°C° 0.1 mm 3 m/S 758 mmHg 73%
    08:00 +26°C° 0.1 mm 3 m/S 759 mmHg 69%
    09:00 +27°C° 0.1 mm 3 m/S 759 mmHg 65%
    10:00 +28°C° 0.1 mm 3 m/S 759 mmHg 61%
    11:00 +29°C° 0.1 mm 3 m/S 759 mmHg 57%
    12:00 +29°C° 0.2 mm 3 m/S 759 mmHg 56%
    13:00 +29°C° 0.2 mm 4 m/S 759 mmHg 56%
    14:00 +30°C° 0.2 mm 4 m/S 759 mmHg 56%
    15:00 +29°C° 0 mm 3 m/S 759 mmHg 60%
    16:00 +28°C° 0 mm 3 m/S 759 mmHg 64%
    17:00 +27°C° 0 mm 2 m/S 759 mmHg 68%
    18:00 +27°C° 0 mm 2 m/S 759 mmHg 70%
    19:00 +26°C° 0 mm 1 m/S 759 mmHg 73%
    20:00 +26°C° 0 mm 1 m/S 760 mmHg 76%
    21:00 +25°C° 0 mm 1 m/S 760 mmHg 77%
    22:00 +23°C° 0 mm 0 m/S 760 mmHg 79%
    23:00 +23°C° 0 mm 0 m/S 760 mmHg 80%

    übermorgen, 22 Oktober, Montag

    Zeit Temperatur Niederschläge Wind Luftdruck Luftfeuchtigkeit
    00:00 +24°C° 0 mm 1 m/S 760 mmHg 80%
    01:00 +24°C° 0 mm 1 m/S 760 mmHg 80%
    02:00 +24°C° 0 mm 1 m/S 760 mmHg 80%
    03:00 +24°C° 0 mm 1 m/S 760 mmHg 79%
    04:00 +24°C° 0 mm 2 m/S 760 mmHg 77%
    05:00 +23°C° 0 mm 2 m/S 760 mmHg 76%
    06:00 +25°C° 0 mm 2 m/S 760 mmHg 69%
    07:00 +26°C° 0 mm 2 m/S 761 mmHg 61%
    08:00 +27°C° 0 mm 3 m/S 761 mmHg 54%
    09:00 +29°C° 0 mm 3 m/S 761 mmHg 45%
    10:00 +31°C° 0 mm 3 m/S 761 mmHg 36%
    11:00 +33°C° 0 mm 3 m/S 760 mmHg 27%
    12:00 +34°C° 0 mm 3 m/S 760 mmHg 26%
    13:00 +34°C° 0 mm 3 m/S 759 mmHg 25%
    14:00 +35°C° 0 mm 3 m/S 759 mmHg 24%
    15:00 +34°C° 0 mm 4 m/S 759 mmHg 26%
    16:00 +33°C° 0 mm 4 m/S 758 mmHg 28%
    17:00 +32°C° 0 mm 4 m/S 758 mmHg 31%
    18:00 +32°C° 0 mm 4 m/S 758 mmHg 30%
    19:00 +30°C° 0 mm 4 m/S 759 mmHg 30%
    20:00 +30°C° 0 mm 4 m/S 759 mmHg 29%
    21:00 +29°C° 0 mm 4 m/S 759 mmHg 29%
    22:00 +29°C° 0 mm 4 m/S 759 mmHg 29%
    23:00 +29°C° 0 mm 4 m/S 759 mmHg 29%

    23 Oktober, Dienstag

    Zeit Temperatur Niederschläge Wind Luftdruck Luftfeuchtigkeit
    00:00 +28°C° 0.1 mm 4 m/S 759 mmHg 33%
    01:00 +28°C° 0.1 mm 4 m/S 758 mmHg 37%
    02:00 +28°C° 0.1 mm 4 m/S 758 mmHg 41%
    03:00 +28°C° 0.3 mm 4 m/S 758 mmHg 42%
    04:00 +27°C° 0.3 mm 5 m/S 758 mmHg 43%
    05:00 +27°C° 0.3 mm 5 m/S 758 mmHg 44%
    06:00 +28°C° 0.2 mm 5 m/S 758 mmHg 42%
    07:00 +29°C° 0.2 mm 5 m/S 758 mmHg 40%
    08:00 +30°C° 0.2 mm 5 m/S 759 mmHg 37%
    09:00 +32°C° 0 mm 5 m/S 758 mmHg 33%
    10:00 +34°C° 0 mm 5 m/S 758 mmHg 29%
    11:00 +35°C° 0 mm 4 m/S 758 mmHg 26%
    12:00 +36°C° 0 mm 4 m/S 758 mmHg 25%
    13:00 +36°C° 0 mm 4 m/S 757 mmHg 24%
    14:00 +37°C° 0 mm 3 m/S 757 mmHg 24%
    15:00 +35°C° 0 mm 3 m/S 757 mmHg 28%
    16:00 +34°C° 0 mm 2 m/S 757 mmHg 32%
    17:00 +31°C° 0 mm 2 m/S 757 mmHg 36%
    18:00 +31°C° 0 mm 2 m/S 757 mmHg 37%
    19:00 +31°C° 0 mm 1 m/S 757 mmHg 38%
    20:00 +30°C° 0 mm 1 m/S 757 mmHg 39%
    21:00 +30°C° 0 mm 2 m/S 757 mmHg 37%
    22:00 +30°C° 0 mm 2 m/S 757 mmHg 36%
    23:00 +30°C° 0 mm 3 m/S 757 mmHg 34%

    24 Oktober, Mittwoch

    Zeit Temperatur Niederschläge Wind Luftdruck Luftfeuchtigkeit
    00:00 +30°C° 0 mm 2 m/S 756 mmHg 34%
    01:00 +29°C° 0 mm 2 m/S 756 mmHg 34%
    02:00 +29°C° 0 mm 2 m/S 756 mmHg 34%
    03:00 +29°C° 0.2 mm 3 m/S 756 mmHg 36%
    04:00 +28°C° 0.2 mm 3 m/S 756 mmHg 38%
    05:00 +28°C° 0.2 mm 4 m/S 756 mmHg 40%
    06:00 +28°C° 0.1 mm 4 m/S 756 mmHg 39%
    07:00 +29°C° 0.1 mm 4 m/S 756 mmHg 38%
    08:00 +29°C° 0.1 mm 4 m/S 757 mmHg 37%
    09:00 +30°C° 0 mm 4 m/S 756 mmHg 35%
    10:00 +33°C° 0 mm 5 m/S 756 mmHg 32%
    11:00 +34°C° 0 mm 5 m/S 756 mmHg 30%
    12:00 +34°C° 0 mm 6 m/S 755 mmHg 33%
    13:00 +34°C° 0 mm 6 m/S 755 mmHg 36%
    14:00 +33°C° 0 mm 7 m/S 754 mmHg 38%
    15:00 +32°C° 0.3 mm 6 m/S 754 mmHg 46%
    16:00 +30°C° 0.3 mm 6 m/S 755 mmHg 53%
    17:00 +28°C° 0.3 mm 5 m/S 755 mmHg 61%
    18:00 +28°C° 0.6 mm 4 m/S 755 mmHg 63%
    19:00 +27°C° 0.6 mm 4 m/S 755 mmHg 64%
    20:00 +27°C° 0.6 mm 3 m/S 755 mmHg 66%
    21:00 +26°C° 0.4 mm 3 m/S 755 mmHg 67%
    22:00 +26°C° 0.4 mm 2 m/S 755 mmHg 67%
    23:00 +26°C° 0.4 mm 2 m/S 755 mmHg 68%

    25 Oktober, Donnerstag

    Zeit Temperatur Niederschläge Wind Luftdruck Luftfeuchtigkeit
    00:00 +26°C° 0.4 mm 3 m/S 755 mmHg 67%
    01:00 +25°C° 0.4 mm 3 m/S 755 mmHg 66%
    02:00 +25°C° 0.4 mm 3 m/S 755 mmHg 65%
    03:00 +25°C° 0.4 mm 4 m/S 754 mmHg 65%
    04:00 +25°C° 0.4 mm 4 m/S 754 mmHg 64%
    05:00 +23°C° 0.4 mm 5 m/S 754 mmHg 64%
    06:00 +25°C° 0.4 mm 5 m/S 754 mmHg 59%
    07:00 +26°C° 0.4 mm 5 m/S 754 mmHg 55%
    08:00 +27°C° 0.4 mm 6 m/S 754 mmHg 50%
    09:00 +29°C° 0.2 mm 7 m/S 754 mmHg 45%
    10:00 +31°C° 0.2 mm 8 m/S 753 mmHg 40%
    11:00 +33°C° 0.2 mm 10 m/S 753 mmHg 35%
    12:00 +32°C° 0.2 mm 10 m/S 753 mmHg 39%
    13:00 +31°C° 0.2 mm 11 m/S 753 mmHg 43%
    14:00 +29°C° 0.2 mm 11 m/S 753 mmHg 47%
    15:00 +28°C° 0.4 mm 11 m/S 753 mmHg 49%
    16:00 +28°C° 0.4 mm 10 m/S 753 mmHg 51%
    17:00 +27°C° 0.4 mm 9 m/S 753 mmHg 54%
    18:00 +26°C° 0.3 mm 8 m/S 753 mmHg 59%
    19:00 +26°C° 0.3 mm 8 m/S 754 mmHg 63%
    20:00 +24°C° 0.3 mm 7 m/S 754 mmHg 68%
    21:00 +24°C° 1 mm 7 m/S 754 mmHg 70%
    22:00 +23°C° 1 mm 8 m/S 754 mmHg 73%
    23:00 +23°C° 1 mm 8 m/S 754 mmHg 75%
    Mehr zeigen